Terminal Aerodrome Forecast
Issued by NWS

Home | Current Version | Previous Version | Text Only | Print | Product List | Glossary On
Versions: 1 2 3 4 5 6 7 8 9 10 11 12 13 14 15 16 17 18 19 20 21 22 23 24 25 26 27 28 29 30 31 32 33 34 35 36 37 38 39 40 41 42
000
FTUS45 KSLC 030154 AAB
TAFENV
TAF AMD
KENV 030154Z 0302/0324 28013KT P6SM BKN250
     FM030500 02010KT P6SM FEW100 SCT250
     FM030900 VRB04KT P6SM SKC
     FM031800 12008KT P6SM SCT200
      AMD LTD TO CLD VIS AND WIND=

USA.gov is the U.S. government's official web portal to all federal, state and local government web resources and services.